• MPC Preparation (Info)

  • MPEC 2020-C05 : 2015 BK

    The following Minor Planet Electronic Circular may be linked-to from your own Web pages, but must not otherwise be redistributed electronically.

    A form allowing access to any MPEC is at the bottom of this page.


    Read MPEC 2020-C04 Read MPEC 2020-C06


    M.P.E.C. 2020-C05                              Issued 2020 February 1, 15:00 UT
    
         The Minor Planet Electronic Circulars contain information on unusual
             minor planets and routine data on comets.  They are published
        on behalf of Division F of the International Astronomical Union by the
              Minor Planet Center, Smithsonian Astrophysical Observatory,
                              Cambridge, MA 02138, U.S.A.
    
                 Prepared using the Tamkin Foundation Computer Network
    
                                  MPC@CFA.HARVARD.EDU
                URL https://www.minorplanetcenter.net/    ISSN 1523-6714
    
                                     2015 BK                                 
    
    
                               Revision to MPEC 2015-B43                            
    
    Additional Observations:
         K15B00K  C2020 01 29.65965214 46 44.649-09 16 43.46         22.76GVEC005T12
         K15B00K  C2020 01 29.66286414 46 45.421-09 16 44.63         22.90GVEC005T12
         K15B00K  C2020 01 30.60951414 50 37.697-09 22 36.54         22.85GVEC005T12
         K15B00K  C2020 01 30.61151014 50 38.178-09 22 37.20         22.54GVEC005T12
    
    Observer details:
    T12 Mauna Kea-UH/Tholen NEO Follow-Up (2.24-m).  Observers D. Hung, D. J. 
       Tholen.  Measurer D. J. Tholen.  2.24-m f/10.1 reflector + CCD.
    
    First and last observations above in comparison with prediction:
    Residuals in seconds of arc, reference and Delta-T
    200129 T12 96.3+ 29.4+    200130 T12 95.3+ 29.4+    MPO369256   +0.03 days
    
    Orbital elements:
    2015 BK                                                  Earth MOID = 0.1414 AU
    Epoch 2020 May 31.0 TT = JDT 2459000.5                  Veres
    M  48.93808              (2000.0)            P               Q
    n   0.40057418     Peri.   29.87272     -0.94186921     -0.32347512
    a   1.8225555      Node   130.96607     +0.27949056     -0.90434803
    e   0.3856490      Incl.    6.90716     +0.18646022     -0.27842142
    P   2.46           H   21.3           G   0.15           U   0
    Residuals in seconds of arc
    150116 703  1.0-  1.1+    150122 807  0.1+  0.0     150228 A48  0.0   0.3+
    150116 703 (2.1-  0.4+)   150122 807  0.0   0.1-    150228 A48  0.0   0.5+
    150116 703 (0.1-  1.7+)   150122 807  0.2-  0.1+    150308 H21  0.2-  0.2+
    150116 703  1.2-  0.4+    150122 F51  0.0   0.1+    150308 H21  0.2-  0.2+
    150116 H01  0.1-  0.0     150122 F51  0.0   0.1+    150308 H21  0.1-  0.2+
    150116 H01  0.1+  0.1+    150122 F51  0.0   0.1+    150308 H21  0.2+  0.1+
    150116 H01  0.1-  0.3+    150122 F51  0.0   0.1+    150308 H21  0.0   0.0
    150116 H01  0.2-  0.4+    150123 807  0.2-  0.4-    150308 H21  0.1+  0.2-
    150116 H21  0.3+  0.2+    150123 807  0.3-  0.3-    150308 H21  0.0   0.2+
    150116 H21  0.1-  0.3+    150123 807  0.2-  0.0     150308 H21  0.0   0.3-
    150116 H21  0.1-  0.3+    150123 807  0.2-  0.1-    150308 H21  0.2-  0.1-
    150116 G45  0.1+  0.2-    150123 807  0.1-  0.1-    150308 H21  0.1+  0.2-
    150116 G45  0.2-  0.5-    150125 I41  0.2+  0.5+    150309 H21  0.2-  0.0
    150116 G45  0.7+  0.6-    150125 I41  0.1-  0.1-    150309 H21  0.3-  0.3-
    150116 G45  0.3-  0.1+    150125 I41  0.3+  0.1+    150309 H21  0.1-  0.3-
    150116 G45  1.3-  1.3-    150128 G45  0.3-  0.4+    150309 H21  0.2-  0.2-
    150116 G45  0.7-  0.5+    150128 G45  0.1-  0.2+    150309 H21  0.4-  0.1+
    150116 G45  0.2+  0.2-    150128 G45  0.3-  0.0     150309 H21  0.1+  0.2-
    150116 474  0.3-  0.1-    150128 G45  0.0   0.1+    150309 H21  0.1-  0.1+
    150116 474  0.2-  0.0     150128 G45  0.6-  0.1-    150309 H21  0.3-  0.1-
    150116 474  0.1+  0.4-    150128 G45  0.2+  0.3-    150311 D29  0.4+  1.1+
    150117 J95  0.0   0.0     150131 H21  0.1+  0.1+    150311 D29  1.1+  0.6-
    150117 J95  0.6+  0.3-    150131 H21  0.0   0.1-    150313 G96  0.2+  0.4+
    150117 J95  0.1-  0.0     150131 H21  0.1-  0.1-    150313 G96  0.0   0.4+
    150117 H01  0.2-  0.0     150131 H21  0.2-  0.0     150313 G96  0.1-  0.1-
    150117 H01  0.1-  0.0     150131 H21  0.1-  0.2-    150317 246  0.3+  0.1-
    150117 H01  0.1-  0.0     150201 F51  0.2+  0.0     150317 246  0.3-  0.5+
    150117 H01  0.1-  0.0     150201 F51  0.1+  0.0     150317 246  0.0   0.2+
    150117 673  0.7+  0.1-    150201 F51  0.0   0.0     150317 246  0.6-  0.2+
    150117 673  0.6+  0.3+    150201 F51  0.0   0.2-    150317 246  0.2+  0.1-
    150117 448  0.1-  0.3-    150205 H21  0.1-  0.5-    150317 246  0.6+  0.5-
    150117 448  0.1+  0.3+    150205 H21  0.4-  0.3-    150317 246  0.7-  0.6-
    150117 G96  0.1+  0.0     150205 H21  0.3-  0.1-    150317 246  0.2-  0.1+
    150117 448  0.2+  0.0     150209 D29  0.2-  0.3+    150317 246  1.2+  0.8-
    150117 G96  0.3+  0.0     150209 D29  0.2+  0.2+    150317 246  0.2-  0.0
    150117 G96  0.2+  0.1+    150209 D29  0.2+  0.1+    150317 246  0.2+  0.1-
    150117 G96  0.1+  0.2+    150210 160  0.2-  0.2+    150317 246  0.4-  0.2+
    150117 G45  0.3+  0.0     150210 160  0.2-  0.2+    150317 246  0.8-  0.1+
    150117 G45  0.1-  0.1+    150210 160  0.4-  0.0     150317 246  0.4-  0.5+
    150117 G45  0.5+  0.2-    150210 703  0.1-  0.2+    150318 246  0.2+  0.2+
    150117 G45  0.2-  0.3+    150210 703  0.3+  0.2+    150318 246  0.2+  0.1+
    150117 G45  0.4+  0.3+    150210 703  0.2-  0.3+    150318 246  0.3+  0.2-
    150117 G45  0.1+  0.5+    150210 703  0.0   0.1+    150318 246  0.3+  0.3+
    150117 G45  0.5+  0.3-    150211 160  1.0+  0.7-    150318 246  0.1+  0.3+
    150117 F51  0.1+  0.0     150211 160  0.2+  0.3-    150318 246  0.1+  0.1+
    150117 F51  0.0   0.1-    150211 160  0.4+  0.9-    150318 246  0.2-  0.2-
    150117 F51  0.0   0.0     150212 160  0.0   0.8-    150318 246  0.0   0.2+
    150117 958 (1.6-  0.5-)   150212 160  0.3+  0.4-    150322 560  0.0   0.2-
    150118 958 (1.6-  0.4-)   150212 160  1.3+  0.4-    150322 560  0.0   0.2-
    150118 033  0.4+  0.3+    150216 246  0.3-  0.2+    150326 703  0.3+  0.7+
    150118 033  0.2+  0.1+    150216 246  0.1-  0.4-    150326 703  0.9+  0.5-
    150118 033  0.3+  0.4+    150216 246  0.1-  0.2-    150326 703  0.7-  0.0
    150118 033  0.4+  0.3+    150216 246  0.3-  0.4-    150326 703  0.7-  0.3-
    150118 G96  0.1-  0.1+    150216 246  0.0   0.0     150330 H21  0.3+  0.2-
    150118 G96  0.1+  0.1+    150216 246  0.1-  0.1-    150330 H21  0.1-  0.1+
    150118 G45  0.9-  0.2-    150216 246  0.3-  0.3-    150330 H21  0.5-  0.8+
    150118 G96  0.0   0.2+    150216 246  0.1-  0.1+    150401 H21  0.2-  0.4-
    150118 G45  0.7-  0.5-    150217 H21  0.0   0.0     150401 H21  0.1-  0.7-
    150118 G96  0.0   0.2+    150217 H21  0.2-  0.2-    150401 H21  0.5-  0.4-
    150118 G45  0.0   0.1+    150217 H21  0.2-  0.4-    150415 703  0.1+  0.1-
    150118 G45  0.4-  0.1+    150217 H21  0.1+  0.3-    150415 703  0.4+  0.4+
    150118 G45  0.4+  0.2-    150218 160  0.0   0.1+    150415 703  0.9-  0.7+
    150118 G45  0.1-  0.8-    150218 160 (0.7+  1.7+)   150415 703  0.2-  0.4-
    150118 G45  0.2+  0.9+    150218 160  1.3+  1.1+    150421 H21  0.1+  0.1-
    150118 G45  0.0   0.3+    150219 703  0.5-  0.8+    150421 H21  0.3+  0.1+
    150120 448  0.1-  0.1+    150219 703  0.1+  0.2+    150429 H21  0.3-  0.0
    150120 448  0.0   0.1-    150219 703  0.0   0.1-    150429 H21  0.3-  0.1+
    150120 448  0.2+  0.2-    150219 703  0.6+  0.4+    150429 H21  0.1-  0.2+
    150120 F51  0.1-  0.0     150219 K38  0.0   0.1-    150501 711 (2.2-  1.3-)
    150120 448  0.0   0.3+    150219 K38  0.2-  0.2-    150501 711 (2.7-  0.7+)
    150120 448  0.0   0.2-    150225 H21  0.1-  0.0     150501 711 (3.7-  0.0 )
    150120 F51  0.2-  0.0     150225 H21  0.3-  0.1+    150609 H21  0.8+  1.0+
    150120 F51  0.1-  0.1-    150225 H21  0.5-  0.1+    150609 H21  0.9+  0.4+
    150121 807  0.1+  0.2+    150225 H21  0.3-  0.0     150609 H21  0.3+  0.1-
    150121 807  0.1+  0.3+    150225 H21  0.0   0.0     200129 T12  0.0   0.1-
    150121 807  0.3+  0.3+    150226 B67  0.6+  0.2+    200129 T12  0.1+  0.0
    150121 807  0.1-  0.3+    150226 B67  1.1+  0.2+    200130 T12  0.1-  0.0
    150121 807  0.0   0.1+    150226 B67 (1.7+  0.4-)   200130 T12  0.0   0.0
    150122 807  0.2+  0.2-    150228 A48 (0.1+  1.6+)
    150122 807  0.0   0.2+    150228 A48  0.5+  0.6+
    
    Ephemeris:
    2015 BK                  a,e,i = 1.82, 0.39, 7                   q = 1.1197
    Date    TT    R. A. (2000) Decl.     Delta      r    Elong.  Phase     V
    2020 01 02    12 47 05.9 -04 18 09   0.6346  1.1539    88.3    58.4    22.7
    ...
    2020 01 17    13 53 03.0 -07 28 58   0.6017  1.1271    87.1    60.7    22.6
    ...
    2020 01 25    14 27 22.0 -08 43 16   0.5928  1.1207    86.8    61.3    22.6
    ...
    2020 01 31    14 52 12.3 -09 24 49   0.5891  1.1197    86.9    61.5    22.6
    2020 02 01    14 56 15.1 -09 30 34   0.5886  1.1198    86.9    61.5    22.6
    2020 02 02    15 00 16.1 -09 35 58   0.5883  1.1201    86.9    61.5    22.6
    ...
    2020 02 08    15 23 42.7 -10 01 36   0.5870  1.1235    87.3    61.3    22.6
    ...
    2020 02 16    15 53 01.3 -10 18 41   0.5869  1.1329    88.2    60.6    22.6
    ...
    2020 03 02    16 40 55.4 -10 06 00   0.5875  1.1650    91.5    58.3    22.6
    
    A. U. Tomatic                (C) Copyright 2020 MPC           M.P.E.C. 2020-C05
    


    Read MPEC 2020-C04 Read MPEC 2020-C06


    MPEC number:

    Enter an MPEC number in one of the following forms:

    • 1997-B01 (the full form)
    • J97B01 (the packed version of the full form)
    • B01 (the abbreviated form)